Flag for Germany Weather past 2 weeks in Frankenthal (Pfalz), Rhineland-Palatinate, Germany

Now
59 °F

Passing clouds.


Feels Like: 57 °F
Forecast: 45 / 71 °F
Wind: 10 mph from West

Location: Baden Wurttemberg - Neuostheim

Current Time: May 30, 2015 at 11:15:11 AM

Latest Report: May 30, 2015 at 10:50 AM


Visibility: N/A

Pressure: 29.98 "Hg

Humidity: 55%

Dew point: 43 °F

Location of Frankenthal (Pfalz)Location

Historic Weather in Frankenthal (Pfalz) — Graph

°F

Frankenthal (Pfalz) temperature yesterday

Maximum temperature yesterday: 64 °F (at 3:20 PM)
Minimum temperature yesterday: 55 °F (at 6:20 AM)
Average temperature yesterday: 61 °F

Past Weeks' High & Low Weather Summary

 TemperatureHumidityPressure
High73 °F (May 18, 3:50 PM)94% (May 15, 9:20 AM)30.33 "Hg (May 15, 9:20 AM)
Low41 °F (May 22, 5:20 AM)25% (May 18, 6:20 PM)29.71 "Hg (May 18, 6:50 PM)
Average61 °F53%30.06 "Hg
* Reported May 15 9:20 AM — May 30 9:50 AM, Frankenthal (Pfalz), Weather by CustomWeather, © 2015

Note: Actual official high and low records may vary slightly from our data, if they occured in-between our weather recording intervals... More about our weather records

Advertising

Frankenthal (Pfalz) weather history for previous 24 hours

 ConditionsComfort  
Time TempWeatherWind HumidityBarometerVisibility
9:50 AM
Sat, May 30
57 °FBroken clouds.12 mph63%29.98 "HgN/A
9:20 AM57 °FPartly sunny.7 mph72%29.95 "HgN/A
8:50 AM55 °FSunny.7 mph77%29.95 "Hg10 mi
8:20 AM55 °FPassing clouds.6 mph77%29.95 "HgN/A
7:50 AM54 °FPartly sunny.5 mph82%29.92 "HgN/A
7:20 AM54 °FBroken clouds.5 mph82%29.92 "HgN/A
9:20 PM
Fri, May 29
61 °FPassing clouds.7 mph63%29.86 "HgN/A
8:50 PM61 °FScattered clouds.9 mph63%29.86 "HgN/A
8:20 PM63 °FPartly sunny.6 mph64%29.83 "HgN/A
7:50 PM63 °FPartly sunny.7 mph68%29.83 "HgN/A
7:20 PM63 °FPassing clouds.7 mph68%29.83 "HgN/A
6:50 PM63 °FSunny.9 mph68%29.83 "Hg10 mi
6:20 PM63 °FPassing clouds.8 mph68%29.83 "HgN/A
5:50 PM63 °FPassing clouds.6 mph73%29.83 "HgN/A
5:20 PM61 °FPartly sunny.7 mph77%29.83 "HgN/A
4:50 PM63 °FSprinkles. Broken clouds.9 mph73%29.86 "HgN/A
4:20 PM64 °FSprinkles. Clear.7 mph64%29.83 "HgN/A
3:50 PM64 °FPassing clouds.6 mph64%29.83 "HgN/A
3:20 PM64 °FPassing clouds.7 mph64%29.86 "HgN/A
2:50 PM63 °FPassing clouds.6 mph68%29.86 "HgN/A
2:20 PM61 °FScattered clouds.6 mph72%29.89 "HgN/A
1:50 PM59 °FBroken clouds.7 mph77%29.89 "HgN/A
1:20 PM59 °FBroken clouds.7 mph77%29.89 "HgN/A
12:50 PM59 °FLight rain. Broken clouds.8 mph72%29.92 "HgN/A
12:20 PM61 °FPassing clouds.9 mph68%29.92 "HgN/A
11:50 AM63 °FPassing clouds.9 mph64%29.92 "HgN/A
11:20 AM63 °FPassing clouds.9 mph59%29.92 "HgN/A
Weather by CustomWeather, © 2015

See weather overviewHow to use our weather pages